NOAA 16 DEB, 41149

Orbit data source: Space-Track

NOAA 16 DEB, 41149 is space debris in SSO originally from a launch on Thu, 21 Sep 2000 UTC launched from the Air Force Western Test Range (AFWTR). Debris objects in space refer to the collection of defunct objects orbiting the Earth. Examples of debris include non-operational satellites, rocket bodies, and fragments generated from explosions, collisions, or faulty payload assembly.

Loading next visibility...
Identifier
41149, 2000-055CG
Orbit
SSO
Last TLE update
9 hours ago
Origin
Manufacturer
Unknown
Mission
Spacecraft
Bus & Motor
Unknown
Mass
Unknown
Launch date (UTC)
2000-09-21 (25 years ago)
Launch vehicle
Unknown
Launch site
Air Force Western Test Range (AFWTR)
Object type
Payload
Rocket body
Debris
Shape & HBR
Unknown
Radar Cross Section
Small (<0.1 m²)

Expand to show TLE details & history

TLE from 9 hours ago
0 NOAA 16 DEB
1 41149U 00055CG  25128.85609475  .00016246  00000-0  29617-2 0  9997
2 41149  98.9454 358.9171 0045793 105.3920 255.2346 14.65418209494196
Epoch: 2025-05-08T20:32Z
Definitive object data (Epoch: 2025-05-08T20:32:46.586Z)
Latitude
-0.00008°
Longitude
-176.19759°
Altitude
687.074 km
Speed
7.508 km/s
True Right ascension
23h 55m 40s
True Declination
0° 00' 00"
Sunlit
Object was in daylight at TLE epoch
Visualization TLE readout
Latitude
-77.42547°
Longitude
-131.18896°
Altitude
735.53 km
Speed
7.469 km/s
Apparent Right ascension
02h 20m 20s
Apparent Declination
-59° 40' 59"
Sunlit
Object is in daylight
Visualization observer readout
Local Sidereal Time
14:09:09
Azimuth
184.155° SSW
Elevation
-70.155°
Doppler factor
1
Orbital elements
Apogee altitude
705.131 km
Perigee altitude
640.554 km
Semi-major axis
7,050.98 km
Eccentricity
0.0045793
Inclination
98.9454°
RAAN
358.9171°
Arg. of periapsis
105.392°
True anomaly
254.72793°
Mean anomaly
255.2346°
Eccentric anomaly
254.98119°
Mean motion
3.6658 °/min
BSTAR
0.0029617
Orbital period
98.2 mins
Loading maneuver chart data...
Loading SW <> Apogee altitude chart data...
Loading historical data...
Loading historical data...
Loading historical data...
Loading historical data...
Loading historical data...
Loading historical data...
Loading historical data...

NOAA 16 DEB Visibility forecast

Observer location: undefined°, undefined°

Span
Click to sort rows by Start time (UTC) header in descending order
Start Az.
Max El. time (UTC)
Max El. Az.
Max El.
End time (UTC)
End Az.
7 mins2025-05-09 14:42:24.139Z134.696° SE2025-05-09 14:45:24.139Z85.236° E32.007°2025-05-09 14:49:24.139Z4.903° NNE
4 mins2025-05-09 16:21:24.139Z238.023° WSW2025-05-09 16:23:24.139Z270.834° WNW17.484°2025-05-09 16:25:24.139Z300.966° NW
7 mins2025-05-10 04:15:24.139Z14.32° NNE2025-05-10 04:18:24.139Z18.589° NNE44.264°2025-05-10 04:22:24.139Z194.674° SSW
|